Regional Weather Roundup
Issued by NWS Wakefield, VA

Home | Current Version | Previous Version | Graphics & Text | Print | Product List | Glossary On
Versions: 1 2 3 4 5 6 7 8 9 10 11 12 13 14 15 16 17 18 19 20 21 22 23 24 25 26 27 28 29 30 31 32 33 34 35 36 37 38 39 40 41 42 43 44 45 46 47 48 49 50
000
ASUS41 KAKQ 261310
RWRAKQ

REGIONAL WEATHER ROUNDUP
NATIONAL WEATHER SERVICE WAKEFIELD VA
900 AM EDT TUE AUG 26 2014

Note: "fair" indicates few or no clouds below 12,000 feet with no
significant weather and/or obstructions to visibility. * = Denotes
station may not report precipitation (e.g., rain,snow,etc.),
thunder or fog.

VAZ042-051-052>054-056-261400-
NORTHERN VIRGINIA

CITY           SKY/WX    TMP DP  RH WIND       PRES   REMARKS
WASH NATIONAL  MOSUNNY   75  61  61 N5        30.18R
DULLES         MOSUNNY   68  60  75 NW3       30.19S
FORT BELVOIR   SUNNY     72  64  75 NW2       30.18S
QUANTICO       MOSUNNY   70  62  76 NW3       30.18S
FREDERICKSBRG* SUNNY     68  64  87 CALM      30.17S
STAFFORD*      SUNNY     67  67 100 CALM      30.22R
WARRENTON      SUNNY     67  67  97 CALM      30.19R
CULPEPER*      SUNNY    N/A N/A N/A CALM      30.20R
MANASSAS*      SUNNY     70  64  83 N3        30.19R
LEESBURG*      SUNNY     68  63  83 CALM      30.20S
WINCHESTER     SUNNY     63  59  88 CALM      30.21S
$$

VAZ048-049-060>072-079>083-261400-
CENTRAL AND SOUTH CENTRAL VIRGINIA...AND NORTH CENTRAL NORTH CAROLINA

CITY           SKY/WX    TMP DP  RH WIND       PRES   REMARKS
RICHMOND       MOSUNNY   71  62  73 N8        30.16F
CHESTERFIELD*  SUNNY    N/A N/A N/A N3        30.18S
HANOVER        SUNNY     70  62  76 CALM      30.18F
TAPPAHANNOCK*  SUNNY     69  64  82 CALM      30.17F
CHARLOTTSVILLE SUNNY     67  60  78 CALM      30.20R
ORANGE*        SUNNY     68  59  73 NW5       30.21R
LOUISA*        SUNNY     70  63  78 CALM      30.18R
FARMVILLE*     SUNNY     66  64  94 NE3       30.16S
SOUTH HILL*    PTSUNNY   66  66 100 N5        30.22S
ROANOKE RAPIDS PTSUNNY   68  64  88 N8        30.14F
RALEIGH        MOSUNNY   67  61  81 NE6       30.15F
$$

VAZ088>098-261400-
SOUTHEAST VIRGINIA

CITY           SKY/WX    TMP DP  RH WIND       PRES   REMARKS
NORFOLK        SUNNY     74  67  78 NE15      30.13S
VIRGINIA BEACH MOSUNNY   75  65  70 NE13      30.12R
NORFOLK NAVAL  MOSUNNY   76  66  71 NE14      30.14S
WEST POINT*    SUNNY     72  67  83 NW3       30.17S
NEWPORT NEWS   PTSUNNY   77  67  71 NE7       30.14S
LANGLEY AFB    SUNNY     75  67  77 NE13      30.13S
FORT EUSTIS    SUNNY     73  73 100 N5        30.13S
WILLIAMSBURG*  SUNNY     70  68  94 CALM      30.16S
FRANKLIN*      SUNNY     70  66  88 N6        30.14S
WAKEFIELD      SUNNY     70  63  78 N3        30.15S
$$

VAZ020-022-025-037-045-261400-
WESTERN AND SOUTHWEST VIRGINIA

CITY           SKY/WX    TMP DP  RH WIND       PRES   REMARKS
STAUNTON*      PTSUNNY   57  56  95 CALM      30.25R FOG
HOT SPRINGS VA SUNNY     56  53  87 E3        30.31R
LYNCHBURG      SUNNY     66  60  81 N6        30.21R
DANVILLE       SUNNY     68  59  73 NE8       30.18S
MARTINSVILLE   SUNNY     66  63  89 CALM      30.21F
ROANOKE        MOSUNNY   65  58  78 N6        30.23S
BLACKSBURG     SUNNY     61  61 100 CALM      30.26S
DUBLIN*        FOG       57  57 100 CALM      30.26R VSB<1/4
MARION*        CLOUDY   N/A N/A N/A CALM      30.28R FOG
HILLSVILLE*    SUNNY     58  56  94 CALM      30.25R
RICHLANDS*     SUNNY     66  56  70 CALM      30.24R
WISE*          SUNNY     66  54  63 S5        30.24R
ABINGDON*      MOSUNNY   64  58  79 E10       30.23R
$$

MDZ021>025-VAZ099-100-261400-
SOUTHERN MARYLAND AND THE DELMARVA PENINSULA

CITY           SKY/WX    TMP DP  RH WIND       PRES   REMARKS
PATUXENT RIVER MOSUNNY   74  67  78 VRB5      30.15F
BAY BRIDGE APT   N/A     73  63  68 N7        30.17S
LEONARDTOWN    SUNNY     70  63  78 CALM      30.17S
DOVER          SUNNY     73  68  83 NE3       30.15S
GEORGETOWN     SUNNY     74  64  71 E9        30.16S
EASTON         SUNNY     73  66  78 NE7       30.19S
CAMBRIDGE      SUNNY     72  63  73 NE5       30.15S
SALISBURY      SUNNY     73  62  68 E3        30.15S
OCEAN CITY     SUNNY     73  65  75 E3        30.15S
WALLOPS ISLAND MOSUNNY   73  64  73 N3        30.15S
ACCOMACK*      NOT AVBL
$$

NCZ012>017-030>032-261400-
EASTERN NORTH CAROLINA

CITY           SKY/WX    TMP DP  RH WIND       PRES   REMARKS
ELIZABETH CITY SUNNY     74  66  76 N6        30.11S
AHOSKIE*       MOSUNNY   67  63  89 N8        30.14S
EDENTON*       SUNNY     70  67  89 N6        30.12S
CURRITUCK*     SUNNY     76  60  57 NE12      30.12S
KILL DEVIL HLS SUNNY     76  64  65 NE10G16   30.09R
MANTEO         SUNNY     75  64  67 NE16      30.09S
CAPE HATTERAS  SUNNY     76  70  82 NE9       30.07R
GOLDSBORO      SUNNY     69  67  95 N10       30.11S
WASHINGTON     SUNNY     69  65  86 NE9       30.11S
GREENVILLE     PTSUNNY   68  64  88 N6        30.13S
NEW BERN       SUNNY     73  65  75 NE10      30.10S
WILMINGTON     SUNNY     71  65  81 N13       30.07S
$$

VAZ048-261400-
ELSEWHERE

CITY           SKY/WX    TMP DP  RH WIND       PRES   REMARKS
HARRISBURG PA  SUNNY     68  60  75 NW5       30.18S
BALTIMORE      MOSUNNY   73  61  65 CALM      30.17S
ANNAPOLIS      SUNNY     73  63  70 N6        30.17R
ANDREWS AFB    SUNNY     73  62  67 N8        30.18R
WILMINGTON DE  SUNNY     75  60  59 N5        30.18R
PHILADELPHIA   MOSUNNY   76  64  66 NE3       30.17S
WILDWOOD NJ*   SUNNY     73  64  73 NE5       30.17S
ATLANTIC CITY  SUNNY     74  68  81 CALM      30.16S
HENDERSON NC   SUNNY     64  62  92 N6        30.17S
GREENSBORO     MOSUNNY   67  60  78 NE3       30.17S
ROCKY MOUNT    SUNNY     69  64  84 N9        30.14S
FAYETTEVILLE   SUNNY     70  62  76 NE16      30.12S
CHARLOTTE      MOSUNNY   68  60  75 N7        30.16S
$$

VAZ100-261400-
MARINE

STATION/POSITION TIME  TEMP    WIND        PRES    WAVE   SWELL
                       AIR SEA DIR/SP/G            HT/PER HT/PER
                 (UTC) (F)     (DEG/KT/KT) (MB)    (FT/S) (FT/S)
44066 TX TWR #4  1300   72 71   30/  6/  8 1021.0R   4/ 9   3/ 9
CAPE MAY NJ      1300   74 78   80/  3/  5 1020.5F
LEWES DE         1300   73 75   20/  1/  2 1020.6F
15NM E FENWICK I 1200   73 73              1020.6R   4/ 8
OCEAN-CITY-INLET 1300   71 74   20/  4/  5 1020.4S
WACHAPREAGUE VA  1300   73 74   20/  4/  7 1020.6R
GOOSES REEF MD   1300   74      40/  8/  8 1021.7S
COVE POINT MD    1300   73      40/  6/  7 1021.0F
SOLOMONS ISLAND  1300      79                N/A
BISHOPS HEAD MD  1300   72 74   10/  6/ 11 1020.4F
PINEY POINT MD   1300           20/  5/  6   N/A
POTOMAC MD       1300   74      10/  6/  8 1020.3S
CAMBRIDGE MD     1300   71 78   20/  5/  7 1020.9S
LEWISETTA VA     1300   74 76  360/  5/  8 1020.6F
RAPPAHANNOCK LGT 1300           40/  8/ 10 1021.2R
STINGRAY PT      1300   75      50/  8/ 10   N/A
YORK RVR RNG VA  1300   74      70/ 10/ 12 1020.1F
YORKTOWN VA      1300   72 78   20/  5/  5 1020.4F
JAMESTOWN VA     1300   68      20/  6/  8   N/A
DOMINION TERM VA 1300   75      40/  4/  7 1020.4S
KIPTOPEKE VA     1300      79   40/  6/  8   N/A
CHES BAY BRIDGE  1300   72 77   20/ 13/ 17 1019.6F
CAPE HENRY VA    1300   72      40/ 14/ 16 1018.9S
CHESAPEAKE LGHT  1200   74      50/ 17/ 18 1020.3R
WILLOUBY STN VA  1300   73      40/ 14/ 15 1019.1S
S CRANEY ISL VA  1300           20/ 12/ 14 1019.9S
CAPE HENRY BUOY  1300      76                N/A     5/ 8
1ST LANDING BUOY 1300   74      30/ 14/ 16 1019.8F
CAPE CHARLES BUO 1300      76                N/A     4/ 8   3/ 8
OFFSHORE WE BUOY 1300      75                N/A     5/ 8   3/ 8
64NM E OF VA BCH 1300   75 78   40/ 14/ 17 1018.7R   6/ 9   5/ 9
DUCK PIER NC     1300   74 76   40/ 17/ 19 1018.6R
44056 DUCK FRF   1300                        N/A     6/ 9   2/11
OREGON INLET NC  1300   75 77   20/ 13/ 17 1018.8R
HATTERAS NC      1300   76 77   40/ 12/ 16 1018.4R
DIAMOND SHLS NC  1300   78      20/ 17/ 21 1016.9R   7/10   5/10
CAPE LOOKOUT NC  1200   74      20/ 11/ 16 1017.3R
$$



USA.gov is the U.S. government's official web portal to all federal, state and local government web resources and services.